Satellite-Ground Cal/Val Site Overpasses Predictions

Prediction of Satellite NPP Overpassing Cal/Val Site: Antarctic Dome C

Ground Cal/Val Site Location: Latitude: -75.10, Longitude: 123.35; Satellite-Ground Site NADIR distance within 100 km.

Table of predicted overpasses for the next 14.0 days since TLE Epoch: 1/19/2017
Interval Starting Time Ending Time Minimum Distance Time Minimum Distance (km)
1 01/20/2017 07:44:26 01/20/2017 07:44:46 01/20/2017 07:44:36 73.60
2 01/21/2017 07:25:33 01/21/2017 07:26:01 01/21/2017 07:25:47 34.20
3 01/23/2017 15:08:00 01/23/2017 15:08:06 01/23/2017 15:08:03 97.34
4 01/24/2017 14:48:57 01/24/2017 14:49:26 01/24/2017 14:49:12 14.14
5 01/26/2017 07:31:47 01/26/2017 07:32:16 01/26/2017 07:32:01 3.24
6 01/29/2017 14:55:12 01/29/2017 14:55:40 01/29/2017 14:55:26 22.27
7 01/30/2017 14:36:29 01/30/2017 14:36:44 01/30/2017 14:36:37 84.82
8 01/31/2017 07:38:01 01/31/2017 07:38:28 01/31/2017 07:38:15 38.22


NCC Satellite Cal/Val Overpasses Prediction Service
